Location: Capvern
(43.1036°N, 0.3160°E)
Time: 04:26:24
(UTC+00:00)

Gbstr 26 Del rocket - Pass Details

Date: 16 October 2021
Orbit: 492 x 1263 km, 51.8° (Epoch: 02 December)

Event Time Altitude Azimuth Distance (km) Brightness Sun altitude
Rises 19:32:11 0° 302° (WNW) 3,868 8.3 -25.9°
Reaches altitude 10° 19:34:45 10° 303° (WNW) 2,999 7.4 -26.3°
Maximum altitude 19:42:16 87° 31° (NNE) 1,232 4.4 -27.7°
Enters shadow 19:44:00 60° 117° (ESE) 1,398 4.4 -28.0°
